Find Starlink 30401

NORAD ID: 57818 Int'l Des: 2023-138 Owner: SPXS Country: US Constellation: starlink operational
LEOCIRCULAR

实时位置

正在加载3D地球...

关于 Starlink 30401

正在加载描述...

即将过境

Passes for default location (London). Set your location on the main map for personalized predictions.

高度历史

Loading altitude history...

两行轨道根数

1 57818U 23138L 26125.76661444 -.00001883 00000-0 -58926-4 0 9996
2 57818 42.9976 272.1636 0000514 272.5236 87.5557 15.27585668147363
Epoch: May 5, 2026 • Age: 19 hours

当前状态

高度 483.8 km
速度 7.63 km/s
星下点 29.83°N, 120.53°W
发射日期 Sep 9, 2023
运行时间 2.6 years
类型 internet

技术详情

分类 Payload
质量 730.00 kg
干质量 700.00 kg
总质量 730.00 kg
长度 0.30 m
直径 4.10 m
跨度 29.00 m
形状 Box + pan
制造商 SPXS
平台类型 Starlink V2M
阶段状态 In Orbit
所有者/国家 SPXS/US

Most Searched